Regional Weather Roundup
Issued by NWS

Home | Current Version | Previous Version | Graphics & Text | Print | Product List | Glossary On
Versions: 1 2 3 4 5 6 7 8 9 10 11 12 13 14 15 16 17 18 19 20 21 22 23 24 25 26 27 28 29 30 31 32 33 34 35 36 37 38 39 40 41 42 43 44 45 46 47 48 49 50
582
ASUS44 KJAN 150910
RWRMS

MISSISSIPPI HOURLY WEATHER ROUNDUP
NATIONAL WEATHER SERVICE JACKSON MS
400 AM CDT TUE APR 15 2014

NOTE: "FAIR: INDICATES FEW OR NO CLOUDS BELOW 12,000 FEET WITH NO
SIGNIFICANT WEATHER AND/OR OBSTRUCTIONS TO VISIBILITY.

MSZ001>002-007>008-010>013-018>021-025>028-034>036-151000-
NORTHWEST MISSISSIPPI

CITY           SKY/WX    TMP DP  RH WIND       PRES   REMARKS
CLARKSDALE       N/A     41  32  70 N15G26    30.12R
CLEVELAND      CLOUDY    42  35  75 N18       30.10S
GREENWOOD      CLOUDY    42  32  67 N16G26    30.08R
GREENVILLE     CLOUDY    43  33  68 N16G25    30.11R
GRENADA        CLOUDY    39  34  81 N16G22    30.07R WCI  30
OLIVE BRANCH   CLOUDY    37  32  81 N18G28    30.08R WCI  27
OXFORD         CLOUDY    37  32  81 N9G16     30.07R WCI  31
TUNICA         CLOUDY    41  32  70 N24       30.11R
$$

MSZ003>006-009-014>017-022>024-029>033-037>039-151000-
NORTHEAST MISSISSIPPI

CITY           SKY/WX    TMP DP  RH WIND       PRES   REMARKS
BELMONT        DRIZZLE   39  37  91 NW14G23   29.97R WCI  31
COLUMBUS AFB   CLOUDY    43  41  93 NW21      29.97R
CORINTH        CLOUDY    39  34  81 N12       30.02R WCI  32
GOLDN TRIANGLE CLOUDY    43  37  81 N16G23    29.99R
STARKVILLE     CLOUDY    41  39  93 NW6G17    29.98R
TUPELO         CLOUDY    41  35  79 N15G23    30.01R
$$

MSZ040-058-151000-
CENTRAL MISSISSIPPI

CITY           SKY/WX    TMP DP  RH WIND       PRES   REMARKS
JACKSON INTL   CLOUDY    43  39  87 NW13      30.03S
JACKSON HAWKNS CLOUDY    43  37  79 NW12G23   30.04S
MERIDIAN KEY   LGT RAIN  46  44  93 N14       29.93R
MERIDIAN NAS   LGT RAIN  46  43  89 NW16G25   29.94R
RAYMOND        CLOUDY    41  37  87 NW9G17    30.06R HAZE
VICKSBURG      CLOUDY    45  36  70 N9G26     30.10R
$$

MSZ059>079-151000-
SOUTH MISSISSIPPI

CITY           SKY/WX    TMP DP  RH WIND       PRES   REMARKS
BROOKHAVEN     CLOUDY    43  43 100 NW14      30.02S
COLUMBIA       CLOUDY    46  45  93 MISG      29.96R
HATTIESBURG    CLOUDY    49  46  90 N15       29.94F
MCCOMB         CLOUDY    45  41  86 NW18      29.99R
NATCHEZ        CLOUDY    43  34  70 N12G24    30.07S
PINE BELT      CLOUDY    46  41  81 N16G25    29.95R
$$

MSZ080>082-151000-
COASTAL MISSISSIPPI

CITY           SKY/WX    TMP DP  RH WIND       PRES   REMARKS
BILOXI         LGT RAIN  51  50  96 N18G26    29.87R
PASCAGOULA     RAIN      52  51  97 N14G22    29.86R
GULFPORT       CLOUDY    53  48  83 N17G29    29.88R
$$



USA.gov is the U.S. government's official web portal to all federal, state and local government web resources and services.